Weather History for KERI - January, 2014

Change the Weather History Date:

Tuesday, January 14, 2014

  Actual Average Record
Temperature  
Mean Temperature 37 °F 27 °F  
Max Temperature 46 °F 34 °F 68 °F (1995)
Min Temperature 28 °F 21 °F -5 °F (1893)
Degree Days  
Heating Degree Days 28 38  
Month to date heating degree days 553 524  
Since 1 July heating degree days 2795 2692  
Cooling Degree Days 0 0  
Month to date cooling degree days 0 0  
Year to date cooling degree days 0 0  
Moisture  
Dew Point 31 °F    
Average Humidity 73    
Maximum Humidity 89    
Minimum Humidity 56    
Precipitation  
Precipitation 0.02 in 0.10 in 1.29 in (1937)
Month to date precipitation 1.91 1.46  
Year to date precipitation 1.91 1.46  
Snow  
Snow 0.00 in 1.00 in - ()
Month to date snowfall 15.1 14.3  
Since 1 July snowfall 78.7 50.5  
Snow Depth 0.00 in    
Sea Level Pressure  
Sea Level Pressure 29.75 in    
Wind  
Wind Speed 8 mph (WSW)    
Max Wind Speed 21 mph    
Max Gust Speed 26 mph    
Visibility 9 miles    
Events Rain    
T = Trace of Precipitation, MM = Missing Value Source: NWS Daily Summary

Daily Weather History Graph

Daily Weather History Graph

Search for Another Location

Airport or City:

Trip Planner

Search our weather history database for the weather conditions in past years. The results will help you decide how hot, cold, wet, or windy it might be!

Date:

Astronomy

Jan. 14, 2014 Rise Set
Actual Time 7:46 AM EST 5:13 PM EST
Civil Twilight 7:15 AM EST 5:44 PM EST
Nautical Twilight 6:41 AM EST 6:18 PM EST
Astronomical Twilight 6:07 AM EST 6:52 PM EST
Moon 4:17 PM EST (1/14) 6:19 AM EST (1/14)
Length of Visible Light 10h 28m
Length of Day
9h 26m
Waxing Gibbous, 98% of the Moon is Illuminated
Jan 14
Waxing Gibbous
Jan 15
Full
Jan 24
Last Quarter
Jan 30
New
Feb 6
First Quarter

Hourly Weather History & Observations

Time (EST) Temp. Windchill Dew Point Humidity Pressure Visibility Wind Dir Wind Speed Gust Speed Precip Events Conditions
12:16 AM 44.6 °F 40.2 °F 42.8 °F 93% 29.66 in 4.0 mi SW 8.1 mph - 0.03 in Rain Light Rain
12:51 AM 45.0 °F 40.1 °F 42.1 °F 90% 29.66 in 10.0 mi SW 9.2 mph - 0.03 in   Overcast
1:25 AM 46.4 °F 42.4 °F 42.8 °F 87% 29.66 in 10.0 mi SW 8.1 mph - N/A   Overcast
1:51 AM 45.0 °F 40.1 °F 41.0 °F 86% 29.67 in 10.0 mi WSW 9.2 mph - N/A   Overcast
2:21 AM 44.6 °F 38.1 °F 39.2 °F 81% 29.68 in 10.0 mi WSW 13.8 mph 19.6 mph 0.00 in   Overcast
2:51 AM 43.0 °F 37.7 °F 37.9 °F 82% 29.69 in 10.0 mi West 9.2 mph - 0.00 in   Overcast
3:51 AM 42.1 °F 34.9 °F 36.0 °F 79% 29.70 in 10.0 mi West 13.8 mph 21.9 mph N/A   Overcast
4:51 AM 39.0 °F 31.0 °F 35.1 °F 86% 29.71 in 9.0 mi West 13.8 mph - N/A   Overcast
5:22 AM 37.4 °F 31.4 °F 33.8 °F 87% 29.71 in 8.0 mi WSW 8.1 mph 18.4 mph N/A   Overcast
5:51 AM 37.0 °F 29.8 °F 34.0 °F 89% 29.74 in 8.0 mi WSW 10.4 mph - N/A   Overcast
6:51 AM 36.0 °F 29.6 °F 32.0 °F 86% 29.75 in 6.0 mi West 8.1 mph - N/A   Overcast
7:51 AM 35.1 °F 30.1 °F 32.0 °F 89% 29.78 in 6.0 mi WSW 5.8 mph - N/A   Overcast
8:51 AM 35.1 °F 30.1 °F 30.9 °F 85% 29.80 in 5.0 mi WSW 5.8 mph - N/A   Overcast
9:51 AM 36.0 °F 33.3 °F 30.9 °F 82% 29.80 in 6.0 mi West 3.5 mph - N/A   Haze
10:51 AM 36.0 °F 31.1 °F 28.9 °F 76% 29.81 in 7.0 mi West 5.8 mph - N/A   Overcast
11:51 AM 35.1 °F 27.9 °F 28.9 °F 78% 29.81 in 7.0 mi West 9.2 mph - N/A   Overcast
12:51 PM 35.1 °F 27.9 °F 27.0 °F 72% 29.79 in 10.0 mi West 9.2 mph - N/A   Mostly Cloudy
12:59 PM 37.4 °F 31.4 °F 26.6 °F 65% 29.77 in 10.0 mi West 8.1 mph - N/A   Scattered Clouds
1:51 PM 35.1 °F 26.9 °F 25.0 °F 67% 29.79 in 10.0 mi West 11.5 mph - N/A   Clear
2:51 PM 35.1 °F 28.6 °F 21.9 °F 59% 29.79 in 10.0 mi West 8.1 mph - N/A   Clear
3:51 PM 35.1 °F 31.0 °F 21.0 °F 57% 29.79 in 10.0 mi West 4.6 mph - N/A   Clear
4:51 PM 34.0 °F - 21.0 °F 59% 29.81 in 10.0 mi Calm Calm - N/A   Clear
5:51 PM 30.9 °F - 21.9 °F 69% 29.82 in 10.0 mi Calm Calm - N/A   Clear
6:51 PM 28.9 °F - 23.0 °F 78% 29.81 in 7.0 mi Calm Calm - N/A   Clear
7:51 PM 30.9 °F 25.2 °F 24.1 °F 76% 29.80 in 7.0 mi South 5.8 mph - N/A   Clear
8:51 PM 35.1 °F 26.4 °F 27.0 °F 72% 29.78 in 10.0 mi SSE 12.7 mph - N/A   Overcast
9:51 PM 35.1 °F 25.9 °F 27.0 °F 72% 29.78 in 10.0 mi South 13.8 mph - N/A   Scattered Clouds
10:51 PM 37.0 °F 28.5 °F 27.0 °F 67% 29.78 in 10.0 mi South 13.8 mph - N/A   Overcast
11:51 PM 39.0 °F 32.3 °F 27.0 °F 62% 29.76 in 10.0 mi South 10.4 mph - 0.00 in   Overcast